Voltar ao catálogo

THOR ABLESTAR DEB

AtivoLEO
NORAD 254·DEBRIS·🇺🇸 United States

Lançado Jun 29, 1961 de Cape Canaveral Space Force Station

Loading…

Próximas Passagens (próximas 24 horas)

TLE

AtualizadoSource: Space-Track

Época: Sep 6, 2026, 03:58 UTC

1 00254U 61015CF  26249.16564785  .00000834  00000-0  22040-3 0  9995
2 00254  66.7712  59.7443 0057529   8.8358 351.3750 14.53041353385441

Acompanhe THOR ABLESTAR DEB em tempo real com AllMySat

Download on the App Store